SR9NCI Weather Reports


time (UTC)temp
C
wind
direction
speed
KPH
gust
KPH
rain 1hr
cm
rain 24hr
cm
rain mn
cm
humidity
%
barometer
mb
20260903035516 16 135 1.6 4.8 0.00 0.00 0.00
20260903035115 16 135 4.8 8.0 0.00 0.00 0.00
20260903034713 16 151 6.4 8.0 0.00 0.00 0.00
20260903034305 16 135 3.2 4.8 0.00 0.00 0.00
20260903033902 17 136 4.8 8.0 0.00 0.00 0.00
20260903033501 16 145 6.4 8.0 0.00 0.00 0.00
20260903033100 16 153 4.8 9.7 0.00 0.00 0.00
20260903032658 16 148 3.2 6.4 0.00 0.00 0.00
20260903032256 17 140 4.8 9.7 0.00 0.00 0.00
20260903031854 16 132 3.2 6.4 0.00 0.00 0.00
20260903031453 16 136 6.4 9.7 0.00 0.00 0.00
20260903031052 17 136 6.4 11.3 0.00 0.00 0.00
20260903030649 17 152 8.0 11.3 0.00 0.00 0.00
20260903030241 16 135 3.2 6.4 0.00 0.00 0.00
20260903025839 16 151 3.2 4.8 0.00 0.00 0.00
20260903025438 16 157 4.8 8.0 0.00 0.00 0.00
20260903025036 16 157 3.2 6.4 0.00 0.00 0.00
20260903024635 17 141 4.8 8.0 0.00 0.00 0.00
20260903024234 17 152 4.8 8.0 0.00 0.00 0.00
20260903023832 17 143 6.4 9.7 0.00 0.00 0.00
20260903023431 16 152 6.4 14.5 0.00 0.00 0.00
20260903023029 16 151 4.8 9.7 0.00 0.00 0.00
20260903022627 16 135 3.2 6.4 0.00 0.00 0.00
20260903022219 16 135 3.2 6.4 0.00 0.00 0.00
20260903021817 16 135 1.6 4.8 0.00 0.00 0.00
20260903021415 16 135 1.6 3.2 0.00 0.00 0.00
20260903020612 17 111 3.2 4.8 0.00 0.00 0.00
20260903020211 16 111 4.8 4.8 0.00 0.00 0.00
20260903015808 16 135 3.2 6.4 0.00 0.00 0.00
20260903015407 16 139 4.8 8.0 0.00 0.00 0.00
20260903015006 16 135 3.2 3.2 0.00 0.00 0.00
20260903014604 16 151 3.2 4.8 0.00 0.00 0.00
20260903014155 16 180 1.6 4.8 0.00 0.00 0.00
20260903013753 17 180 3.2 4.8 0.00 0.00 0.00
20260903013352 17 180 4.8 6.4 0.00 0.00 0.00
20260903012951 17 180 3.2 6.4 0.00 0.00 0.00
20260903012549 17 182 4.8 6.4 0.00 0.00 0.00
20260903012147 17 217 3.2 6.4 0.00 0.00 0.00
20260903011745 18 180 6.4 11.3 0.00 0.00 0.00
20260903010943 18 150 3.2 6.4 0.00 0.00 0.00
20260903010540 17 140 3.2 6.4 0.00 0.00 0.00
20260903010132 17 170 3.2 6.4 0.00 0.00 0.00
20260903005730 17 180 3.2 6.4 0.00 0.00 0.00
20260903005329 18 180 1.6 3.2 0.00 0.00 0.00
20260903004927 17 157 1.6 3.2 0.00 0.00 0.00
20260903004525 17 157 1.6 6.4 0.00 0.00 0.00
20260903004124 18 158 4.8 6.4 0.00 0.00 0.00
20260903003723 18 209 3.2 4.8 0.00 0.00 0.00
20260903003320 17 225 1.6 4.8 0.00 0.00 0.00
20260903002919 18 248 1.6 4.8 0.00 0.00 0.00
20260903002518 17 262 4.8 6.4 0.00 0.00 0.00
20260903002110 17 288 1.6 4.8 0.00 0.00 0.00
20260903001708 15 292 1.6 3.2 0.00 0.00 0.00
20260903001305 15 292 1.6 3.2 0.00 0.00 0.00
20260903000904 16 288 4.8 8.0 0.00 0.00 0.00
20260903000502 16 180 1.6 4.8 0.00 0.00 0.00
20260902235658 16 180 1.6 3.2 0.00 0.00 0.00
20260902235257 16 180 1.6 6.4 0.00 0.00 0.00
20260902234856 17 157 3.2 6.4 0.00 0.00 0.00
20260902234454 18 157 4.8 8.0 0.00 0.00 0.00
20260902234045 18 152 4.8 9.7 0.00 0.00 0.00
20260902233643 18 138 4.8 6.4 0.00 0.00 0.00
20260902233242 18 146 4.8 8.0 0.00 0.00 0.00
20260902232841 18 153 6.4 11.3 0.00 0.00 0.00
20260902232438 18 150 8.0 12.9 0.00 0.00 0.00
20260902232038 18 148 6.4 12.9 0.00 0.00 0.00
20260902231635 18 133 6.4 11.3 0.00 0.00 0.00
20260902231234 18 150 8.0 12.9 0.00 0.00 0.00
20260902230833 18 148 6.4 9.7 0.00 0.00 0.00
20260902230022 18 151 6.4 11.3 0.00 0.00 0.00
20260902225620 17 157 4.8 6.4 0.00 0.00 0.00
20260902225219 17 157 4.8 6.4 0.00 0.00 0.00
20260902224816 17 154 6.4 8.0 0.00 0.00 0.00
20260902224415 18 157 4.8 8.0 0.00 0.00 0.00
20260902224013 18 148 4.8 6.4 0.00 0.00 0.00
20260902223612 18 152 6.4 11.3 0.00 0.00 0.00
20260902223209 18 152 8.0 12.9 0.00 0.00 0.00
20260902222809 17 147 6.4 9.7 0.00 0.00 0.00
20260902222406 17 142 6.4 9.7 0.00 0.00 0.00
20260902221958 18 154 4.8 8.0 0.00 0.00 0.00
20260902221555 18 143 8.0 11.3 0.00 0.00 0.00
20260902221154 18 148 8.0 16.1 0.00 0.00 0.00
20260902220753 17 154 6.4 9.7 0.00 0.00 0.00
20260902220352 16 157 3.2 6.4 0.00 0.00 0.00
20260902215951 17 157 4.8 8.0 0.00 0.00 0.00
20260902215548 17 141 4.8 8.0 0.00 0.00 0.00
20260902215147 18 137 6.4 8.0 0.00 0.00 0.00
20260902214746 18 151 6.4 11.3 0.00 0.00 0.00
20260902214344 18 152 8.0 12.9 0.00 0.00 0.00
20260902213935 18 156 6.4 9.7 0.00 0.00 0.00
20260902213533 18 163 9.7 12.9 0.00 0.00 0.00
20260902213132 18 157 4.8 6.4 0.00 0.00 0.00
20260902212731 18 166 4.8 8.0 0.00 0.00 0.00
20260902212328 18 178 4.8 8.0 0.00 0.00 0.00
20260902211927 18 180 4.8 9.7 0.00 0.00 0.00
20260902211525 18 157 4.8 8.0 0.00 0.00 0.00
20260902211124 18 157 6.4 11.3 0.00 0.00 0.00
20260902210722 18 157 4.8 6.4 0.00 0.00 0.00
20260902210320 18 157 4.8 6.4 0.00 0.00 0.00
20260902205912 18 157 4.8 6.4 0.00 0.00 0.00
20260902205510 18 157 3.2 8.0 0.00 0.00 0.00
20260902205109 19 157 6.4 11.3 0.00 0.00 0.00
20260902204707 18 156 4.8 9.7 0.00 0.00 0.00
20260902204305 18 135 1.6 3.2 0.00 0.00 0.00
20260902203904 18 135 3.2 6.4 0.00 0.00 0.00
20260902203503 18 146 3.2 6.4 0.00 0.00 0.00
20260902203101 19 140 3.2 6.4 0.00 0.00 0.00
20260902202700 19 150 3.2 6.4 0.00 0.00 0.00
20260902202258 18 157 3.2 6.4 0.00 0.00 0.00
20260902201850 18 157 1.6 4.8 0.00 0.00 0.00
20260902201046 19 135 3.2 8.0 0.00 0.00 0.00
20260902200243 19 135 3.2 6.4 0.00 0.00 0.00
20260902195841 20 157 6.4 9.7 0.00 0.00 0.00
20260902195439 20 144 8.0 12.9 0.00 0.00 0.00
20260902195038 20 136 3.2 8.0 0.00 0.00 0.00
20260902194637 19 129 3.2 3.2 0.00 0.00 0.00
20260902194235 19 69 3.2 3.2 0.00 0.00 0.00
20260902193826 19 21 3.2 4.8 0.00 0.00 0.00
20260902193424 19 21 1.6 3.2 0.00 0.00 0.00
20260902193023 19 21 0.0 3.2 0.00 0.00 0.00
20260902192622 19 21 0.0 0.0 0.00 0.00 0.00
20260902192219 19 21 0.0 0.0 0.00 0.00 0.00
20260902191818 20 21 0.0 0.0 0.00 0.00 0.00
20260902191417 19 21 0.0 0.0 0.00 0.00 0.00
20260902191016 20 21 0.0 3.2 0.00 0.00 0.00
20260902190613 20 21 1.6 3.2 0.00 0.00 0.00
20260902190212 20 21 0.0 3.2 0.00 0.00 0.00
20260902185804 20 21 1.6 1.6 0.00 0.00 0.00
20260902185402 20 21 1.6 3.2 0.00 0.00 0.00
20260902185000 19 21 0.0 3.2 0.00 0.00 0.00
20260902184559 20 21 3.2 4.8 0.00 0.00 0.00
20260902184157 20 21 0.0 3.2 0.00 0.00 0.00
20260902183756 20 21 0.0 1.6 0.00 0.00 0.00
20260902183354 20 21 0.0 0.0 0.00 0.00 0.00
20260902182952 20 21 1.6 3.2 0.00 0.00 0.00
20260902182551 20 0 1.6 3.2 0.00 0.00 0.00
20260902182149 20 0 0.0 1.6 0.00 0.00 0.00
20260902181741 20 345 1.6 1.6 0.00 0.00 0.00
20260902181338 21 338 0.0 0.0 0.00 0.00 0.00
20260902180937 21 338 0.0 1.6 0.00 0.00 0.00
20260902180536 21 338 1.6 3.2 0.00 0.00 0.00
20260902180134 21 338 1.6 3.2 0.00 0.00 0.00
20260902175732 21 21 1.6 3.2 0.00 0.00 0.00
20260902175330 21 21 0.0 3.2 0.00 0.00 0.00
20260902174929 21 21 0.0 3.2 0.00 0.00 0.00
20260902174528 21 21 1.6 3.2 0.00 0.00 0.00
20260902174125 21 20 4.8 6.4 0.00 0.00 0.00
20260902173717 21 21 3.2 4.8 0.00 0.00 0.00
20260902173316 22 21 3.2 6.4 0.00 0.00 0.00
20260902172915 22 21 3.2 6.4 0.00 0.00 0.00
20260902172514 22 21 4.8 6.4 0.00 0.00 0.00
20260902172111 22 21 6.4 8.0 0.00 0.00 0.00
20260902171710 22 21 4.8 8.0 0.00 0.00 0.00
20260902171308 22 21 4.8 8.0 0.00 0.00 0.00
20260902170907 22 346 4.8 8.0 0.00 0.00 0.00
20260902170505 22 338 3.2 6.4 0.00 0.00 0.00
20260902170103 23 338 1.6 3.2 0.00 0.00 0.00
20260902165655 23 338 1.6 3.2 0.00 0.00 0.00
20260902165253 23 338 1.6 4.8 0.00 0.00 0.00
20260902164851 23 338 1.6 3.2 0.00 0.00 0.00
20260902164450 23 338 3.2 6.4 0.00 0.00 0.00
20260902164048 23 338 1.6 4.8 0.00 0.00 0.00
20260902163647 23 338 1.6 3.2 0.00 0.00 0.00
20260902163244 24 338 3.2 4.8 0.00 0.00 0.00
20260902162843 24 338 1.6 4.8 0.00 0.00 0.00
20260902162442 24 338 0.0 1.6 0.00 0.00 0.00
20260902162040 25 338 0.0 1.6 0.00 0.00 0.00
20260902161632 24 315 0.0 0.0 0.00 0.00 0.00
20260902161229 24 315 0.0 0.0 0.00 0.00 0.00
20260902160828 25 315 0.0 4.8 0.00 0.00 0.00
20260902160427 25 315 0.0 1.6 0.00 0.00 0.00
20260902160025 25 314 1.6 4.8 0.00 0.00 0.00
20260902155623 25 292 3.2 6.4 0.00 0.00 0.00
20260902155221 25 302 3.2 6.4 0.00 0.00 0.00
20260902154820 25 315 3.2 6.4 0.00 0.00 0.00
20260902154419 25 315 1.6 4.8 0.00 0.00 0.00
20260902154016 25 311 3.2 6.4 0.00 0.00 0.00
20260902153608 25 292 1.6 3.2 0.00 0.00 0.00
20260902153206 25 292 3.2 6.4 0.00 0.00 0.00
20260902152804 25 292 3.2 6.4 0.00 0.00 0.00
20260902152402 25 305 1.6 8.0 0.00 0.00 0.00
20260902152000 25 292 3.2 6.4 0.00 0.00 0.00
20260902151559 25 296 3.2 9.7 0.00 0.00 0.00
20260902151157 25 282 3.2 4.8 0.00 0.00 0.00
20260902150756 26 313 4.8 9.7 0.00 0.00 0.00
20260902150354 26 309 1.6 6.4 0.00 0.00 0.00
20260902145952 25 341 4.8 12.9 0.00 0.00 0.00
20260902145544 26 300 9.7 19.3 0.00 0.00 0.00
20260902145142 26 241 8.0 16.1 0.00 0.00 0.00
20260902144740 26 240 9.7 14.5 0.00 0.00 0.00
20260902143937 26 249 6.4 12.9 0.00 0.00 0.00
20260902143536 26 220 6.4 12.9 0.00 0.00 0.00
20260902143133 26 210 9.7 14.5 0.00 0.00 0.00
20260902142732 26 250 8.0 12.9 0.00 0.00 0.00
20260902142331 26 257 8.0 12.9 0.00 0.00 0.00
20260902141929 26 253 12.9 16.1 0.00 0.00 0.00
20260902141520 26 222 11.3 17.7 0.00 0.00 0.00
20260902141118 26 254 8.0 11.3 0.00 0.00 0.00
20260902140717 26 249 6.4 8.0 0.00 0.00 0.00
20260902140316 26 275 9.7 16.1 0.00 0.00 0.00
20260902135915 26 281 11.3 17.7 0.00 0.00 0.00
20260902135513 26 277 8.0 11.3 0.00 0.00 0.00
20260902134710 26 231 9.7 14.5 0.00 0.00 0.00
20260902134309 25 248 14.5 20.9 0.00 0.00 0.00
20260902133906 26 274 9.7 17.7 0.00 0.00 0.00
20260902133458 26 264 11.3 16.1 0.00 0.00 0.00
20260902133056 26 256 6.4 12.9 0.00 0.00 0.00
20260902132655 25 259 11.3 16.1 0.00 0.00 0.00
20260902131851 25 262 4.8 8.0 0.00 0.00 0.00
20260902131450 25 307 8.0 12.9 0.00 0.00 0.00
20260902131048 26 284 8.0 16.1 0.00 0.00 0.00
20260902130646 26 354 6.4 12.9 0.00 0.00 0.00
20260902130245 26 269 8.0 12.9 0.00 0.00 0.00
20260902125843 25 316 8.0 12.9 0.00 0.00 0.00
20260902125435 25 342 9.7 16.1 0.00 0.00 0.00
20260902125033 25 299 8.0 14.5 0.00 0.00 0.00
20260902124631 26 296 8.0 14.5 0.00 0.00 0.00
20260902124230 26 278 4.8 8.0 0.00 0.00 0.00
20260902123828 25 317 4.8 8.0 0.00 0.00 0.00
20260902123427 26 275 4.8 9.7 0.00 0.00 0.00
20260902123025 25 300 4.8 8.0 0.00 0.00 0.00
20260902122624 25 315 3.2 11.3 0.00 0.00 0.00
20260902122223 24 313 6.4 11.3 0.00 0.00 0.00
20260902121821 25 260 6.4 9.7 0.00 0.00 0.00
20260902121412 24 272 11.3 16.1 0.00 0.00 0.00
20260902121010 24 270 9.7 16.1 0.00 0.00 0.00
20260902120609 24 270 8.0 16.1 0.00 0.00 0.00
20260902120208 24 271 12.9 17.7 0.00 0.00 0.00
20260902115805 25 264 12.9 19.3 0.00 0.00 0.00
20260902115404 25 244 12.9 19.3 0.00 0.00 0.00
20260902115002 26 223 9.7 17.7 0.00 0.00 0.00
20260902114601 25 219 11.3 19.3 0.00 0.00 0.00
20260902114200 25 266 11.3 19.3 0.00 0.00 0.00
20260902113757 25 229 11.3 19.3 0.00 0.00 0.00
20260902113349 25 273 11.3 17.7 0.00 0.00 0.00
20260902112947 24 255 11.3 16.1 0.00 0.00 0.00
20260902112546 24 270 6.4 12.9 0.00 0.00 0.00
20260902112144 24 250 11.3 17.7 0.00 0.00 0.00
20260902111742 25 240 11.3 16.1 0.00 0.00 0.00
20260902111341 25 276 8.0 14.5 0.00 0.00 0.00
20260902110940 25 279 12.9 19.3 0.00 0.00 0.00
20260902110537 25 249 19.3 25.7 0.00 0.00 0.00
20260902110136 25 280 12.9 19.3 0.00 0.00 0.00
20260902105735 24 269 12.9 17.7 0.00 0.00 0.00
20260902105327 25 266 14.5 20.9 0.00 0.00 0.00
20260902104924 25 238 8.0 11.3 0.00 0.00 0.00
20260902104523 25 214 12.9 19.3 0.00 0.00 0.00
20260902104122 25 220 9.7 16.1 0.00 0.00 0.00
20260902103720 25 262 9.7 16.1 0.00 0.00 0.00
20260902103319 25 264 8.0 16.1 0.00 0.00 0.00
20260902102916 24 243 6.4 11.3 0.00 0.00 0.00
20260902102515 23 268 6.4 9.7 0.00 0.00 0.00
20260902102114 23 255 9.7 16.1 0.00 0.00 0.00
20260902101712 23 266 11.3 16.1 0.00 0.00 0.00
20260902101303 23 277 12.9 20.9 0.00 0.00 0.00
20260902100901 23 282 11.3 19.3 0.00 0.00 0.00
20260902100500 23 275 9.7 12.9 0.00 0.00 0.00
20260902100059 23 244 9.7 16.1 0.00 0.00 0.00
20260902095656 23 270 12.9 16.1 0.00 0.00 0.00
20260902095255 23 257 9.7 16.1 0.00 0.00 0.00
20260902094853 23 241 9.7 14.5 0.00 0.00 0.00
20260902094452 23 236 9.7 14.5 0.00 0.00 0.00
20260902094050 23 240 9.7 16.1 0.00 0.00 0.00
20260902093648 23 202 12.9 17.7 0.00 0.00 0.00
20260902093240 23 225 12.9 22.5 0.00 0.00 0.00
20260902092839 23 203 9.7 17.7 0.00 0.00 0.00
20260902092438 23 219 11.3 19.3 0.00 0.00 0.00
20260902092035 23 222 8.0 14.5 0.00 0.00 0.00
20260902091634 23 269 8.0 14.5 0.00 0.00 0.00
20260902091233 23 247 9.7 16.1 0.00 0.00 0.00
20260902090831 23 262 8.0 14.5 0.00 0.00 0.00
20260902090428 23 254 12.9 17.7 0.00 0.00 0.00
20260902090027 23 232 8.0 11.3 0.00 0.00 0.00
20260902085625 23 229 11.3 16.1 0.00 0.00 0.00
20260902085216 23 218 9.7 16.1 0.00 0.00 0.00
20260902084813 23 196 9.7 16.1 0.00 0.00 0.00
20260902084412 23 178 9.7 14.5 0.00 0.00 0.00
20260902084011 23 172 4.8 6.4 0.00 0.00 0.00
20260902083610 23 180 4.8 11.3 0.00 0.00 0.00
20260902083208 23 180 6.4 9.7 0.00 0.00 0.00
20260902082806 23 157 3.2 12.9 0.00 0.00 0.00
20260902082405 23 157 3.2 6.4 0.00 0.00 0.00
20260902082003 23 157 3.2 6.4 0.00 0.00 0.00
20260902081601 23 157 3.2 4.8 0.00 0.00 0.00
20260902081152 23 157 4.8 8.0 0.00 0.00 0.00
20260902080750 23 157 4.8 8.0 0.00 0.00 0.00
20260902080349 22 157 3.2 8.0 0.00 0.00 0.00
20260902075948 22 157 4.8 8.0 0.00 0.00 0.00
20260902075628 22 157 4.8 9.7 0.00 0.00 0.00
20260902075545 22 157 4.8 9.7 0.00 0.00 0.00
20260902075144 22 144 8.0 12.9 0.00 0.00 0.00
20260902074742 21 135 6.4 9.7 0.00 0.00 0.00
20260902074342 21 142 8.0 12.9 0.00 0.00 0.00
20260902073939 21 146 6.4 9.7 0.00 0.00 0.00
20260902073538 21 150 9.7 14.5 0.00 0.00 0.00
20260902073130 21 158 11.3 16.1 0.00 0.00 0.00
20260902072728 21 156 8.0 12.9 0.00 0.00 0.00
20260902072326 21 162 8.0 12.9 0.00 0.00 0.00
20260902071925 21 156 11.3 16.1 0.00 0.00 0.00
20260902071523 20 152 11.3 14.5 0.00 0.00 0.00
20260902071122 21 152 9.7 14.5 0.00 0.00 0.00
20260902070720 20 152 9.7 16.1 0.00 0.00 0.00
20260902070318 21 141 8.0 14.5 0.00 0.00 0.00
20260902065917 20 144 11.3 14.5 0.00 0.00 0.00
20260902065515 21 145 9.7 14.5 0.00 0.00 0.00
20260902065107 21 143 8.0 14.5 0.00 0.00 0.00
20260902064704 21 156 9.7 16.1 0.00 0.00 0.00
20260902064303 21 157 6.4 9.7 0.00 0.00 0.00
20260902063902 21 157 8.0 12.9 0.00 0.00 0.00
20260902063500 21 157 4.8 6.4 0.00 0.00 0.00
20260902063058 20 157 4.8 8.0 0.00 0.00 0.00
20260902062656 20 143 6.4 11.3 0.00 0.00 0.00
20260902062255 19 145 6.4 16.1 0.00 0.00 0.00
20260902061853 19 152 8.0 11.3 0.00 0.00 0.00
20260902061450 18 145 4.8 11.3 0.00 0.00 0.00
20260902061042 18 148 6.4 11.3 0.00 0.00 0.00
20260902060640 18 146 3.2 8.0 0.00 0.00 0.00
20260902060239 19 149 6.4 9.7 0.00 0.00 0.00
20260902055838 18 139 6.4 12.9 0.00 0.00 0.00
20260902055435 18 138 6.4 11.3 0.00 0.00 0.00
20260902055035 18 143 4.8 8.0 0.00 0.00 0.00
20260902054633 18 157 4.8 9.7 0.00 0.00 0.00
20260902054232 18 135 3.2 4.8 0.00 0.00 0.00
20260902053830 18 147 4.8 8.0 0.00 0.00 0.00
20260902053428 18 146 8.0 14.5 0.00 0.00 0.00
20260902053020 17 151 8.0 9.7 0.00 0.00 0.00
20260902052618 18 142 9.7 16.1 0.00 0.00 0.00
20260902052216 17 139 9.7 16.1 0.00 0.00 0.00
20260902051815 17 141 8.0 12.9 0.00 0.00 0.00
20260902051413 17 146 6.4 12.9 0.00 0.00 0.00
20260902051012 17 137 9.7 16.1 0.00 0.00 0.00
20260902050609 18 139 8.0 14.5 0.00 0.00 0.00
20260902050208 17 144 9.7 14.5 0.00 0.00 0.00
20260902045807 17 136 8.0 12.9 0.00 0.00 0.00
20260902045405 17 124 6.4 9.7 0.00 0.00 0.00
20260902044957 17 144 8.0 12.9 0.00 0.00 0.00
20260902044554 17 144 8.0 11.3 0.00 0.00 0.00
20260902044153 17 154 6.4 12.9 0.00 0.00 0.00
20260902043752 17 143 8.0 16.1 0.00 0.00 0.00
20260902043350 17 151 12.9 22.5 0.00 0.00 0.00
20260902042947 16 156 9.7 14.5 0.00 0.00 0.00
20260902042545 16 153 9.7 16.1 0.00 0.00 0.00
20260902042144 17 150 12.9 16.1 0.00 0.00 0.00
20260902041742 16 148 11.3 14.5 0.00 0.00 0.00
20260902041339 16 148 8.0 12.9 0.00 0.00 0.00
20260902040932 16 153 11.3 16.1 0.00 0.00 0.00
20260902040530 16 151 9.7 16.1 0.00 0.00 0.00
20260902040129 15 156 9.7 14.5 0.00 0.00 0.00